| time (UTC) | temp C | wind direction | speed KPH | gust KPH | rain 1hr cm | rain 24hr cm | rain mn cm | humidity % | barometer mb |
| 20260506232004 | 11 | 97 | 3.2 | 3.2 | 0.00 | 0.00 | 0.00 | 82 | 1016.9 |
| 20260506231504 | 11 | 125 | 3.2 | 3.2 | 0.00 | 0.00 | 0.00 | 83 | 1017.0 |
| 20260506231005 | 11 | 137 | 3.2 | 4.8 | 0.00 | 0.00 | 0.00 | 84 | 1016.9 |
| 20260506230504 | 10 | 130 | 1.6 | 4.8 | 0.00 | 0.00 | 0.00 | 83 | 1016.8 |
| 20260506230004 | 10 | 101 | 1.6 | 3.2 | 0.00 | 0.00 | 0.00 | 82 | 1017.1 |
| 20260506225504 | 11 | 98 | 3.2 | 3.2 | 0.00 | 0.00 | 0.00 | 81 | 1017.1 |
| 20260506225004 | 11 | 91 | 1.6 | 3.2 | 0.00 | 0.00 | 0.00 | 80 | 1017.0 |
| 20260506224004 | 12 | 32 | 3.2 | 4.8 | 0.00 | 0.00 | 0.00 | 81 | 1017.1 |
| 20260506223004 | 11 | 109 | 4.8 | 6.4 | 0.00 | 0.00 | 0.00 | 81 | 1017.1 |
| 20260506222504 | 11 | 132 | 4.8 | 6.4 | 0.00 | 0.00 | 0.00 | 81 | 1017.1 |
| 20260506221504 | 12 | 198 | 1.6 | 3.2 | 0.00 | 0.00 | 0.00 | 79 | 1017.3 |
| 20260506220505 | 12 | 35 | 3.2 | 3.2 | 0.00 | 0.00 | 0.00 | 74 | 1017.5 |
| 20260506220005 | 12 | 22 | 1.6 | 3.2 | 0.00 | 0.00 | 0.00 | 74 | 1017.4 |
| 20260506215504 | 12 | 347 | 1.6 | 6.4 | 0.00 | 0.00 | 0.00 | 76 | 1017.5 |
| 20260506214505 | 12 | 41 | 3.2 | 6.4 | 0.00 | 0.00 | 0.00 | 78 | 1017.4 |
| 20260506213005 | 12 | 79 | 3.2 | 3.2 | 0.00 | 0.00 | 0.00 | 80 | 1017.4 |
| 20260506212504 | 12 | 97 | 4.8 | 4.8 | 0.00 | 0.00 | 0.00 | 81 | 1017.4 |
| 20260506212004 | 12 | 106 | 4.8 | 4.8 | 0.00 | 0.00 | 0.00 | 80 | 1017.4 |
| 20260506211504 | 12 | 120 | 3.2 | 4.8 | 0.00 | 0.00 | 0.00 | 82 | 1017.3 |
| 20260506211005 | 11 | 126 | 3.2 | 3.2 | 0.00 | 0.00 | 0.00 | 82 | 1017.4 |
| 20260506210504 | 11 | 115 | 1.6 | 3.2 | 0.00 | 0.00 | 0.00 | 82 | 1017.5 |
| 20260506210009 | 11 | 100 | 0.0 | 3.2 | 0.00 | 0.00 | 0.00 | 81 | 1017.5 |
| 20260506205504 | 12 | 102 | 0.0 | 3.2 | 0.00 | 0.00 | 0.00 | 81 | 1017.6 |
| 20260506205004 | 12 | 173 | 0.0 | 3.2 | 0.00 | 0.00 | 0.00 | 81 | 1017.6 |
| 20260506204504 | 12 | 147 | 1.6 | 3.2 | 0.00 | 0.00 | 0.00 | 81 | 1017.5 |
| 20260506204007 | 12 | 139 | 1.6 | 3.2 | 0.00 | 0.00 | 0.00 | 80 | 1017.6 |
| 20260506203507 | 12 | 135 | 1.6 | 3.2 | 0.00 | 0.00 | 0.00 | 77 | 1017.5 |
| 20260506202505 | 12 | 191 | 1.6 | 3.2 | 0.00 | 0.00 | 0.00 | 74 | 1017.7 |
| 20260506202005 | 13 | 280 | 1.6 | 3.2 | 0.00 | 0.00 | 0.00 | 73 | 1017.6 |
| 20260506201505 | 13 | 308 | 1.6 | 3.2 | 0.00 | 0.00 | 0.00 | 74 | 1017.6 |
| 20260506195504 | 14 | 45 | 3.2 | 3.2 | 0.00 | 0.00 | 0.00 | 70 | 1017.7 |
| 20260506195004 | 14 | 45 | 1.6 | 3.2 | 0.00 | 0.00 | 0.00 | 69 | 1017.5 |
| 20260506194005 | 14 | 51 | 3.2 | 3.2 | 0.00 | 0.00 | 0.00 | 71 | 1017.5 |
| 20260506193504 | 14 | 49 | 3.2 | 3.2 | 0.00 | 0.00 | 0.00 | 70 | 1017.3 |
| 20260506193004 | 14 | 41 | 3.2 | 3.2 | 0.00 | 0.00 | 0.00 | 70 | 1017.3 |
| 20260506192504 | 14 | 40 | 3.2 | 3.2 | 0.00 | 0.00 | 0.00 | 70 | 1017.2 |
| 20260506192005 | 14 | 49 | 1.6 | 3.2 | 0.00 | 0.00 | 0.00 | 71 | 1017.5 |
| 20260506191505 | 14 | 80 | 1.6 | 3.2 | 0.00 | 0.00 | 0.00 | 72 | 1017.4 |
| 20260506191005 | 14 | 108 | 3.2 | 3.2 | 0.00 | 0.00 | 0.00 | 71 | 1017.2 |
| 20260506190505 | 15 | 129 | 3.2 | 3.2 | 0.00 | 0.00 | 0.00 | 71 | 1017.2 |
| 20260506190006 | 15 | 131 | 3.2 | 3.2 | 0.00 | 0.00 | 0.00 | 71 | 1017.1 |
| 20260506185505 | 15 | 133 | 3.2 | 3.2 | 0.00 | 0.00 | 0.00 | 70 | 1017.1 |
| 20260506185005 | 15 | 137 | 1.6 | 3.2 | 0.00 | 0.00 | 0.00 | 68 | 1017.0 |
| 20260506184505 | 15 | 156 | 1.6 | 3.2 | 0.00 | 0.00 | 0.00 | 67 | 1017.0 |
| 20260506184005 | 15 | 116 | 1.6 | 4.8 | 0.00 | 0.00 | 0.00 | 69 | 1017.0 |
| 20260506183505 | 16 | 101 | 3.2 | 4.8 | 0.00 | 0.00 | 0.00 | 66 | 1016.9 |
| 20260506183005 | 16 | 112 | 3.2 | 4.8 | 0.00 | 0.00 | 0.00 | 67 | 1016.9 |
| 20260506182505 | 15 | 130 | 3.2 | 4.8 | 0.00 | 0.00 | 0.00 | 69 | 1016.8 |
| 20260506182006 | 15 | 134 | 3.2 | 4.8 | 0.00 | 0.00 | 0.00 | 70 | 1016.7 |
| 20260506181505 | 16 | 128 | 3.2 | 4.8 | 0.00 | 0.00 | 0.00 | 69 | 1016.7 |
| 20260506180505 | 17 | 34 | 4.8 | 6.4 | 0.00 | 0.00 | 0.00 | 58 | 1016.6 |
| 20260506180006 | 17 | 43 | 4.8 | 6.4 | 0.00 | 0.00 | 0.00 | 57 | 1016.7 |
| 20260506175505 | 17 | 45 | 6.4 | 6.4 | 0.00 | 0.00 | 0.00 | 58 | 1016.7 |
| 20260506175005 | 17 | 46 | 6.4 | 6.4 | 0.00 | 0.00 | 0.00 | 58 | 1016.7 |
| 20260506174505 | 17 | 28 | 4.8 | 6.4 | 0.00 | 0.00 | 0.00 | 60 | 1016.5 |
| 20260506174006 | 17 | 1 | 4.8 | 6.4 | 0.00 | 0.00 | 0.00 | 60 | 1016.5 |
| 20260506173505 | 17 | 22 | 4.8 | 6.4 | 0.00 | 0.00 | 0.00 | 60 | 1016.5 |
| 20260506173005 | 17 | 48 | 3.2 | 6.4 | 0.00 | 0.00 | 0.00 | 61 | 1016.6 |
| 20260506172505 | 18 | 42 | 3.2 | 4.8 | 0.00 | 0.00 | 0.00 | 60 | 1016.4 |
| 20260506172005 | 18 | 34 | 3.2 | 4.8 | 0.00 | 0.00 | 0.00 | 56 | 1016.2 |
| 20260506171005 | 19 | 285 | 3.2 | 4.8 | 0.00 | 0.00 | 0.00 | 56 | 1016.4 |
| 20260506170505 | 19 | 291 | 4.8 | 4.8 | 0.00 | 0.00 | 0.00 | 55 | 1016.3 |
| 20260506170005 | 20 | 304 | 4.8 | 6.4 | 0.00 | 0.00 | 0.00 | 54 | 1016.1 |
| 20260506165506 | 20 | 311 | 6.4 | 6.4 | 0.00 | 0.00 | 0.00 | 53 | 1016.3 |
| 20260506165005 | 20 | 311 | 6.4 | 6.4 | 0.00 | 0.00 | 0.00 | 51 | 1016.3 |
| 20260506164505 | 20 | 312 | 4.8 | 6.4 | 0.00 | 0.00 | 0.00 | 51 | 1016.0 |
| 20260506164005 | 21 | 292 | 6.4 | 9.7 | 0.00 | 0.00 | 0.00 | 50 | 1016.1 |
| 20260506162505 | 22 | 264 | 6.4 | 6.4 | 0.00 | 0.00 | 0.00 | 40 | 1016.2 |
| 20260506162005 | 23 | 265 | 4.8 | 6.4 | 0.00 | 0.00 | 0.00 | 38 | 1016.1 |
| 20260506161505 | 23 | 222 | 3.2 | 6.4 | 0.00 | 0.00 | 0.00 | 36 | 1016.1 |
| 20260506160505 | 23 | 189 | 8.0 | 9.7 | 0.00 | 0.00 | 0.00 | 34 | 1016.2 |
| 20260506160005 | 23 | 195 | 9.7 | 11.3 | 0.00 | 0.00 | 0.00 | 34 | 1016.3 |
| 20260506155505 | 23 | 192 | 9.7 | 11.3 | 0.00 | 0.00 | 0.00 | 34 | 1016.2 |
| 20260506155005 | 23 | 184 | 9.7 | 11.3 | 0.00 | 0.00 | 0.00 | 34 | 1016.2 |
| 20260506154505 | 23 | 162 | 9.7 | 11.3 | 0.00 | 0.00 | 0.00 | 35 | 1016.2 |
| 20260506153505 | 23 | 146 | 8.0 | 11.3 | 0.00 | 0.00 | 0.00 | 35 | 1016.4 |
| 20260506152505 | 23 | 147 | 8.0 | 12.9 | 0.00 | 0.00 | 0.00 | 36 | 1016.3 |
| 20260506151505 | 23 | 154 | 9.7 | 12.9 | 0.00 | 0.00 | 0.00 | 36 | 1016.4 |
| 20260506151005 | 23 | 160 | 9.7 | 12.9 | 0.00 | 0.00 | 0.00 | 35 | 1016.4 |
| 20260506150505 | 23 | 165 | 11.3 | 12.9 | 0.00 | 0.00 | 0.00 | 35 | 1016.5 |
| 20260506150005 | 23 | 176 | 11.3 | 14.5 | 0.00 | 0.00 | 0.00 | 35 | 1016.5 |
| 20260506145506 | 23 | 154 | 12.9 | 16.1 | 0.00 | 0.00 | 0.00 | 34 | 1016.6 |
| 20260506145005 | 23 | 137 | 12.9 | 17.7 | 0.00 | 0.00 | 0.00 | 35 | 1016.5 |
| 20260506144505 | 23 | 143 | 12.9 | 17.7 | 0.00 | 0.00 | 0.00 | 33 | 1016.5 |
| 20260506143503 | 23 | 168 | 11.3 | 14.5 | 0.00 | 0.00 | 0.00 | 34 | 1016.5 |
| 20260506143003 | 23 | 156 | 12.9 | 16.1 | 0.00 | 0.00 | 0.00 | 33 | 1016.4 |
| 20260506142503 | 23 | 156 | 14.5 | 17.7 | 0.00 | 0.00 | 0.00 | 33 | 1016.5 |
| 20260506142003 | 23 | 161 | 16.1 | 19.3 | 0.00 | 0.00 | 0.00 | 32 | 1016.4 |
| 20260506141502 | 23 | 166 | 16.1 | 19.3 | 0.00 | 0.00 | 0.00 | 33 | 1016.5 |
| 20260506141003 | 23 | 171 | 14.5 | 19.3 | 0.00 | 0.00 | 0.00 | 32 | 1016.5 |
| 20260506140504 | 24 | 148 | 14.5 | 16.1 | 0.00 | 0.00 | 0.00 | 31 | 1016.5 |
| 20260506140003 | 23 | 146 | 14.5 | 19.3 | 0.00 | 0.00 | 0.00 | 32 | 1016.5 |
| 20260506135503 | 23 | 155 | 16.1 | 19.3 | 0.00 | 0.00 | 0.00 | 32 | 1016.5 |
| 20260506135002 | 23 | 144 | 14.5 | 19.3 | 0.00 | 0.00 | 0.00 | 32 | 1016.5 |
| 20260506134502 | 23 | 146 | 16.1 | 24.1 | 0.00 | 0.00 | 0.00 | 33 | 1016.5 |
| 20260506133502 | 23 | 145 | 20.9 | 24.1 | 0.00 | 0.00 | 0.00 | 33 | 1016.6 |
| 20260506133004 | 23 | 144 | 20.9 | 24.1 | 0.00 | 0.00 | 0.00 | 33 | 1016.6 |
| 20260506132503 | 23 | 151 | 22.5 | 27.4 | 0.00 | 0.00 | 0.00 | 33 | 1016.6 |
| 20260506132003 | 23 | 152 | 22.5 | 27.4 | 0.00 | 0.00 | 0.00 | 32 | 1016.5 |
| 20260506131003 | 23 | 154 | 19.3 | 24.1 | 0.00 | 0.00 | 0.00 | 34 | 1016.4 |
| 20260506130503 | 23 | 156 | 19.3 | 24.1 | 0.00 | 0.00 | 0.00 | 34 | 1016.4 |
| 20260506130003 | 23 | 169 | 17.7 | 20.9 | 0.00 | 0.00 | 0.00 | 35 | 1016.4 |
| 20260506125503 | 23 | 169 | 19.3 | 24.1 | 0.00 | 0.00 | 0.00 | 34 | 1016.4 |
| 20260506125003 | 23 | 144 | 20.9 | 24.1 | 0.00 | 0.00 | 0.00 | 36 | 1016.5 |
| 20260506124503 | 23 | 139 | 20.9 | 27.4 | 0.00 | 0.00 | 0.00 | 37 | 1016.5 |
| 20260506124003 | 23 | 143 | 24.1 | 29.0 | 0.00 | 0.00 | 0.00 | 38 | 1016.5 |
| 20260506123504 | 23 | 138 | 25.7 | 29.0 | 0.00 | 0.00 | 0.00 | 39 | 1016.6 |
| 20260506123004 | 23 | 134 | 24.1 | 27.4 | 0.00 | 0.00 | 0.00 | 38 | 1016.6 |
| 20260506122503 | 23 | 143 | 22.5 | 29.0 | 0.00 | 0.00 | 0.00 | 40 | 1016.7 |
| 20260506122003 | 23 | 146 | 20.9 | 29.0 | 0.00 | 0.00 | 0.00 | 41 | 1016.6 |
| 20260506121503 | 23 | 138 | 22.5 | 29.0 | 0.00 | 0.00 | 0.00 | 40 | 1016.7 |
| 20260506121003 | 23 | 146 | 24.1 | 27.4 | 0.00 | 0.00 | 0.00 | 42 | 1016.7 |
| 20260506120502 | 23 | 150 | 24.1 | 27.4 | 0.00 | 0.00 | 0.00 | 42 | 1016.7 |
| 20260506120004 | 23 | 147 | 25.7 | 30.6 | 0.00 | 0.00 | 0.00 | 42 | 1016.7 |
| 20260506115503 | 23 | 153 | 25.7 | 30.6 | 0.00 | 0.00 | 0.00 | 42 | 1016.8 |
| 20260506114503 | 23 | 151 | 24.1 | 25.7 | 0.00 | 0.00 | 0.00 | 41 | 1016.8 |
| 20260506114003 | 23 | 156 | 24.1 | 27.4 | 0.00 | 0.00 | 0.00 | 42 | 1016.8 |
| 20260506113003 | 23 | 150 | 25.7 | 30.6 | 0.00 | 0.00 | 0.00 | 40 | 1016.8 |
| 20260506112503 | 23 | 146 | 27.4 | 32.2 | 0.00 | 0.00 | 0.00 | 40 | 1016.9 |
| 20260506112003 | 22 | 135 | 29.0 | 32.2 | 0.00 | 0.00 | 0.00 | 40 | 1016.8 |
| 20260506111503 | 22 | 138 | 27.4 | 32.2 | 0.00 | 0.00 | 0.00 | 42 | 1017.0 |
| 20260506111003 | 23 | 141 | 25.7 | 32.2 | 0.00 | 0.00 | 0.00 | 41 | 1016.8 |
| 20260506110503 | 23 | 134 | 25.7 | 29.0 | 0.00 | 0.00 | 0.00 | 41 | 1017.1 |
| 20260506110004 | 22 | 132 | 27.4 | 32.2 | 0.00 | 0.00 | 0.00 | 42 | 1017.0 |
| 20260506104004 | 22 | 138 | 27.4 | 33.8 | 0.00 | 0.00 | 0.00 | 43 | 1017.2 |
| 20260506103504 | 23 | 137 | 25.7 | 33.8 | 0.00 | 0.00 | 0.00 | 42 | 1017.1 |
| 20260506102504 | 22 | 135 | 29.0 | 33.8 | 0.00 | 0.00 | 0.00 | 42 | 1017.1 |
| 20260506101503 | 23 | 145 | 25.7 | 29.0 | 0.00 | 0.00 | 0.00 | 41 | 1017.2 |
| 20260506101003 | 23 | 160 | 25.7 | 29.0 | 0.00 | 0.00 | 0.00 | 40 | 1017.2 |
| 20260506100503 | 23 | 150 | 22.5 | 27.4 | 0.00 | 0.00 | 0.00 | 41 | 1017.2 |
| 20260506100004 | 23 | 134 | 22.5 | 29.0 | 0.00 | 0.00 | 0.00 | 41 | 1017.2 |
| 20260506095504 | 23 | 140 | 24.1 | 29.0 | 0.00 | 0.00 | 0.00 | 41 | 1017.3 |
| 20260506094503 | 23 | 140 | 22.5 | 27.4 | 0.00 | 0.00 | 0.00 | 38 | 1017.1 |
| 20260506093004 | 23 | 145 | 20.9 | 24.1 | 0.00 | 0.00 | 0.00 | 36 | 1017.2 |
| 20260506092003 | 23 | 150 | 22.5 | 25.7 | 0.00 | 0.00 | 0.00 | 36 | 1017.2 |
| 20260506091504 | 23 | 150 | 22.5 | 25.7 | 0.00 | 0.00 | 0.00 | 37 | 1017.1 |
| 20260506091004 | 23 | 160 | 22.5 | 27.4 | 0.00 | 0.00 | 0.00 | 40 | 1017.2 |
| 20260506090504 | 23 | 161 | 24.1 | 27.4 | 0.00 | 0.00 | 0.00 | 38 | 1017.1 |
| 20260506090004 | 23 | 153 | 22.5 | 27.4 | 0.00 | 0.00 | 0.00 | 38 | 1017.1 |
| 20260506085503 | 23 | 156 | 20.9 | 24.1 | 0.00 | 0.00 | 0.00 | 38 | 1017.0 |
| 20260506085003 | 23 | 162 | 20.9 | 25.7 | 0.00 | 0.00 | 0.00 | 40 | 1017.0 |
| 20260506084503 | 23 | 159 | 20.9 | 25.7 | 0.00 | 0.00 | 0.00 | 36 | 1017.0 |
| 20260506084004 | 23 | 160 | 20.9 | 24.1 | 0.00 | 0.00 | 0.00 | 34 | 1017.1 |
| 20260506083003 | 24 | 158 | 19.3 | 24.1 | 0.00 | 0.00 | 0.00 | 33 | 1016.9 |
| 20260506082503 | 24 | 165 | 19.3 | 24.1 | 0.00 | 0.00 | 0.00 | 32 | 1016.8 |
| 20260506081504 | 25 | 185 | 16.1 | 20.9 | 0.00 | 0.00 | 0.00 | 32 | 1016.9 |
| 20260506081004 | 25 | 183 | 16.1 | 20.9 | 0.00 | 0.00 | 0.00 | 32 | 1016.9 |
| 20260506080504 | 25 | 159 | 14.5 | 17.7 | 0.00 | 0.00 | 0.00 | 33 | 1016.8 |
| 20260506073504 | 25 | 187 | 6.4 | 9.7 | 0.00 | 0.00 | 0.00 | 31 | 1016.8 |
| 20260506073003 | 24 | 192 | 4.8 | 9.7 | 0.00 | 0.00 | 0.00 | 32 | 1016.7 |
| 20260506072503 | 23 | 207 | 4.8 | 6.4 | 0.00 | 0.00 | 0.00 | 31 | 1016.6 |
| 20260506072004 | 23 | 225 | 4.8 | 6.4 | 0.00 | 0.00 | 0.00 | 33 | 1016.7 |
| 20260506071503 | 22 | 286 | 3.2 | 6.4 | 0.00 | 0.00 | 0.00 | 40 | 1016.7 |
| 20260506071003 | 22 | 265 | 4.8 | 6.4 | 0.00 | 0.00 | 0.00 | 37 | 1016.7 |
| 20260506070503 | 22 | 270 | 4.8 | 6.4 | 0.00 | 0.00 | 0.00 | 39 | 1016.6 |
| 20260506062503 | 19 | 289 | 4.8 | 6.4 | 0.00 | 0.00 | 0.00 | 44 | 1016.8 |
| 20260506062004 | 19 | 308 | 3.2 | 6.4 | 0.00 | 0.00 | 0.00 | 48 | 1016.7 |
| 20260506061504 | 18 | 313 | 3.2 | 4.8 | 0.00 | 0.00 | 0.00 | 49 | 1016.6 |
| 20260506061004 | 18 | 1 | 3.2 | 4.8 | 0.00 | 0.00 | 0.00 | 52 | 1016.7 |
| 20260506060504 | 18 | 287 | 4.8 | 4.8 | 0.00 | 0.00 | 0.00 | 52 | 1016.8 |
| 20260506051004 | 14 | 290 | 0.0 | 3.2 | 0.00 | 0.00 | 0.00 | 69 | 1016.6 |
| 20260506050504 | 13 | 292 | 0.0 | 3.2 | 0.00 | 0.00 | 0.00 | 70 | 1016.6 |
| 20260506045004 | 12 | 1 | 0.0 | 3.2 | 0.00 | 0.00 | 0.00 | 73 | 1016.4 |
| 20260506044504 | 11 | 0 | 0.0 | 0.0 | 0.00 | 0.00 | 0.00 | 75 | 1016.4 |
| 20260506044004 | 11 | 135 | 0.0 | 3.2 | 0.00 | 0.00 | 0.00 | 75 | 1016.4 |
| 20260506043503 | 10 | 74 | 1.6 | 3.2 | 0.00 | 0.00 | 0.00 | 76 | 1016.4 |
| 20260506043004 | 11 | 334 | 1.6 | 3.2 | 0.00 | 0.00 | 0.00 | 75 | 1016.3 |
| 20260506042503 | 11 | 321 | 1.6 | 3.2 | 0.00 | 0.00 | 0.00 | 74 | 1016.3 |
| 20260506042004 | 10 | 314 | 0.0 | 3.2 | 0.00 | 0.00 | 0.00 | 76 | 1016.2 |
| 20260506041504 | 10 | 27 | 1.6 | 3.2 | 0.00 | 0.00 | 0.00 | 79 | 1016.1 |
| 20260506041004 | 9 | 66 | 1.6 | 3.2 | 0.00 | 0.00 | 0.00 | 81 | 1016.1 |
| 20260506040504 | 8 | 81 | 1.6 | 3.2 | 0.00 | 0.00 | 0.00 | 83 | 1016.0 |
| 20260506040004 | 8 | 60 | 1.6 | 3.2 | 0.00 | 0.00 | 0.00 | 83 | 1016.1 |
| 20260506035504 | 8 | 49 | 1.6 | 3.2 | 0.00 | 0.00 | 0.00 | 82 | 1016.1 |
| 20260506035004 | 8 | 90 | 1.6 | 4.8 | 0.00 | 0.00 | 0.00 | 81 | 1016.0 |
| 20260506033005 | 8 | 288 | 0.0 | 3.2 | 0.00 | 0.00 | 0.00 | 77 | 1016.1 |
| 20260506032504 | 8 | 71 | 1.6 | 6.4 | 0.00 | 0.00 | 0.00 | 79 | 1016.0 |
| 20260506032004 | 9 | 58 | 4.8 | 6.4 | 0.00 | 0.00 | 0.00 | 80 | 1016.1 |
| 20260506031004 | 8 | 44 | 3.2 | 3.2 | 0.00 | 0.00 | 0.00 | 81 | 1015.9 |
| 20260506030504 | 8 | 58 | 3.2 | 3.2 | 0.00 | 0.00 | 0.00 | 82 | 1015.9 |
| 20260506030004 | 8 | 73 | 3.2 | 3.2 | 0.00 | 0.00 | 0.00 | 81 | 1015.9 |
| 20260506025004 | 8 | 20 | 1.6 | 3.2 | 0.00 | 0.00 | 0.00 | 80 | 1015.9 |
| 20260506024004 | 8 | 67 | 3.2 | 3.2 | 0.00 | 0.00 | 0.00 | 81 | 1015.9 |
| 20260506023504 | 8 | 106 | 3.2 | 4.8 | 0.00 | 0.00 | 0.00 | 79 | 1015.8 |
| 20260506023004 | 8 | 132 | 3.2 | 4.8 | 0.00 | 0.00 | 0.00 | 78 | 1015.8 |
| 20260506022504 | 9 | 233 | 1.6 | 3.2 | 0.00 | 0.00 | 0.00 | 76 | 1015.9 |
| 20260506021504 | 10 | 72 | 3.2 | 3.2 | 0.00 | 0.00 | 0.00 | 73 | 1015.9 |
| 20260506021004 | 10 | 91 | 3.2 | 3.2 | 0.00 | 0.00 | 0.00 | 75 | 1015.8 |
| 20260506020004 | 10 | 27 | 0.0 | 3.2 | 0.00 | 0.00 | 0.00 | 71 | 1015.8 |
| 20260506015504 | 10 | 314 | 1.6 | 3.2 | 0.00 | 0.00 | 0.00 | 70 | 1015.9 |
| 20260506015005 | 10 | 353 | 1.6 | 3.2 | 0.00 | 0.00 | 0.00 | 71 | 1015.9 |
| 20260506014504 | 10 | 16 | 1.6 | 3.2 | 0.00 | 0.00 | 0.00 | 72 | 1015.9 |
| 20260506013504 | 11 | 44 | 3.2 | 4.8 | 0.00 | 0.00 | 0.00 | 70 | 1015.9 |
| 20260506013004 | 10 | 71 | 3.2 | 4.8 | 0.00 | 0.00 | 0.00 | 71 | 1015.9 |
| 20260506012504 | 10 | 114 | 1.6 | 3.2 | 0.00 | 0.00 | 0.00 | 69 | 1015.9 |
| 20260506012004 | 11 | 50 | 1.6 | 3.2 | 0.00 | 0.00 | 0.00 | 66 | 1015.9 |
| 20260506011504 | 11 | 45 | 3.2 | 3.2 | 0.00 | 0.00 | 0.00 | 68 | 1015.9 |
| 20260506010504 | 10 | 20 | 1.6 | 4.8 | 0.00 | 0.00 | 0.00 | 71 | 1015.9 |
| 20260506010004 | 10 | 22 | 3.2 | 4.8 | 0.00 | 0.00 | 0.00 | 71 | 1016.0 |
| 20260506005504 | 10 | 33 | 3.2 | 4.8 | 0.00 | 0.00 | 0.00 | 72 | 1015.9 |
| 20260506005004 | 10 | 52 | 3.2 | 4.8 | 0.00 | 0.00 | 0.00 | 71 | 1015.9 |
| 20260506004004 | 10 | 51 | 4.8 | 6.4 | 0.00 | 0.00 | 0.00 | 71 | 1016.2 |
| 20260506003005 | 9 | 100 | 3.2 | 6.4 | 0.00 | 0.00 | 0.00 | 73 | 1016.2 |
| 20260506001504 | 10 | 84 | 1.6 | 3.2 | 0.00 | 0.00 | 0.00 | 71 | 1016.2 |
| 20260506001004 | 11 | 71 | 1.6 | 3.2 | 0.00 | 0.00 | 0.00 | 70 | 1016.3 |
| 20260506000504 | 10 | 74 | 3.2 | 3.2 | 0.00 | 0.00 | 0.00 | 73 | 1016.4 |
| 20260506000004 | 10 | 51 | 3.2 | 3.2 | 0.00 | 0.00 | 0.00 | 73 | 1016.2 |
| 20260505235504 | 10 | 44 | 3.2 | 3.2 | 0.00 | 0.00 | 0.00 | 72 | 1016.2 |
| 20260505235004 | 10 | 80 | 3.2 | 4.8 | 0.00 | 0.00 | 0.00 | 72 | 1016.2 |
| 20260505234504 | 10 | 78 | 3.2 | 4.8 | 0.00 | 0.00 | 0.00 | 72 | 1016.4 |
| 20260505234005 | 10 | 71 | 3.2 | 4.8 | 0.00 | 0.00 | 0.00 | 71 | 1016.3 |
| 20260505233504 | 11 | 82 | 3.2 | 4.8 | 0.00 | 0.00 | 0.00 | 71 | 1016.2 |
| 20260505233005 | 10 | 89 | 3.2 | 4.8 | 0.00 | 0.00 | 0.00 | 73 | 1016.4 |